Terug naar catalogus

STARLINK-34400

ActiefCommunicatieVLEO
NORAD 64463·PAYLOAD·🇺🇸 United States

Gelanceerd Jun 18, 2025 vanaf Cape Canaveral Space Force Station

Loading…

Volgende Passages (komende 24 uur)

TLE

VersSource: CelesTrak SupGP

Epoch: Sep 15, 2026, 02:30 UTC

1 64463C 25130AB  26258.10465278  .00022499  00000+0  72348-3 0  2580
2 64463  53.1579 290.1768 0001143  89.8121 240.8193 15.31691672    15

Volg STARLINK-34400 in realtime met AllMySat

Download on the App Store